Olathe New Century, KS

2:50 PM CDT on March 27, 2017 (GMT -0500)
New Century Aircenter

Weather History for KIXD - January, 2013

Change the Weather History Date:

Tuesday, January 29, 2013

  Actual Average Record
Temperature  
Mean Temperature 50 °F -  
Max Temperature 66 °F 38 °F 66 °F (2013)
Min Temperature 35 °F 21 °F 5 °F (2004)
Degree Days  
Heating Degree Days 14    
Moisture  
Dew Point 44 °F    
Average Humidity 91    
Maximum Humidity 100    
Minimum Humidity 80    
Precipitation  
Precipitation 1.42 in - - ()
Sea Level Pressure  
Sea Level Pressure 29.57 in    
Wind  
Wind Speed 15 mph (NNW)    
Max Wind Speed 24 mph    
Max Gust Speed 32 mph    
Visibility 5 miles    
Events Fog , Rain , Thunderstorm    
Averages and records for this station are not official NWS values.
T = Trace of Precipitation, MM = Missing Value Source: NWS Daily Summary

Daily Weather History Graph

Daily Weather History Graph

Search for Another Location

Airport or City:

Trip Planner

Search our weather history database for the weather conditions in past years. The results will help you decide how hot, cold, wet, or windy it might be!

Date:

Astronomy

Jan. 29, 2013 Rise Set
Actual Time 7:27 AM CST 5:38 PM CST
Civil Twilight 6:59 AM CST 6:06 PM CST
Nautical Twilight 6:27 AM CST 6:38 PM CST
Astronomical Twilight 5:56 AM CST 7:09 PM CST
Moon 8:32 PM CST (1/29) 8:27 AM CST (1/29)
Length of Visible Light 11h 06m
Length of Day
10h 10m
Waning Gibbous, 93% of the Moon is Illuminated
Jan 29
Waning Gibbous
Feb 3
Last Quarter
Feb 10
New
Feb 17
First Quarter
Feb 25
Full

Hourly Weather History & Observations

Time (CST) Temp. Windchill Dew Point Humidity Pressure Visibility Wind Dir Wind Speed Gust Speed Precip Events Conditions
12:48 AM 66.2 °F - 60.8 °F 83% 29.66 in 10.0 mi South 19.6 mph 26.5 mph 0.00 in Rain , Thunderstorm Light Rain
12:53 AM 64.9 °F - 60.1 °F 84% 29.61 in 4.0 mi SSW 21.9 mph 28.8 mph 0.06 in Rain , Thunderstorm Heavy Thunderstorms and Rain
1:27 AM 66.2 °F - 60.8 °F 83% 29.64 in 10.0 mi South 20.7 mph 28.8 mph 0.00 in   Overcast
1:53 AM 66.0 °F - 60.1 °F 81% 29.60 in 10.0 mi South 18.4 mph 29.9 mph 0.00 in   Overcast
2:10 AM 66.2 °F - 60.8 °F 83% 29.63 in 10.0 mi South 21.9 mph 31.1 mph N/A   Mostly Cloudy
2:48 AM 66.2 °F - 60.8 °F 83% 29.63 in 10.0 mi South 24.2 mph 32.2 mph N/A   Mostly Cloudy
2:53 AM 66.0 °F - 60.1 °F 81% 29.60 in 10.0 mi South 20.7 mph 32.2 mph N/A   Mostly Cloudy
3:49 AM 64.4 °F - 59.0 °F 83% 29.62 in 10.0 mi South 18.4 mph 27.6 mph N/A   Scattered Clouds
3:53 AM 64.9 °F - 59.0 °F 81% 29.60 in 10.0 mi South 18.4 mph 26.5 mph N/A   Scattered Clouds
4:53 AM 64.0 °F - 57.9 °F 80% 29.59 in 10.0 mi South 15.0 mph 26.5 mph N/A   Partly Cloudy
5:53 AM 63.0 °F - 57.9 °F 84% 29.57 in 10.0 mi South 12.7 mph - N/A   Mostly Cloudy
6:03 AM 62.6 °F - 57.2 °F 82% 29.60 in 10.0 mi South 12.7 mph - N/A   Mostly Cloudy
6:53 AM 62.1 °F - 57.0 °F 84% 29.57 in 10.0 mi South 11.5 mph - N/A   Partly Cloudy
7:30 AM 62.6 °F - 57.2 °F 82% 29.59 in 10.0 mi South 10.4 mph - N/A Thunderstorm Mostly Cloudy
7:46 AM 53.6 °F - 50.0 °F 88% 29.61 in 9.0 mi WNW 11.5 mph 23.0 mph 0.00 in Rain , Thunderstorm Light Thunderstorms and Rain
7:53 AM 51.1 °F - 46.9 °F 86% 29.60 in 7.0 mi NW 17.3 mph 23.0 mph 0.00 in Rain , Thunderstorm Light Thunderstorms and Rain
8:01 AM 50.0 °F - 48.2 °F 94% 29.63 in 1.0 mi WNW 8.1 mph - 0.11 in Rain , Thunderstorm Heavy Thunderstorms and Rain
8:07 AM 48.2 °F - 48.2 °F 100% 29.63 in 2.0 mi NW 10.4 mph - 0.14 in Rain , Thunderstorm Heavy Thunderstorms and Rain
8:29 AM 48.2 °F - 46.4 °F 93% 29.64 in 2.0 mi NW 10.4 mph - 0.19 in Rain , Thunderstorm Rain
8:37 AM 46.4 °F 40.4 °F 44.6 °F 93% 29.67 in 2.0 mi WNW 13.8 mph - 0.21 in Rain , Thunderstorm Rain
8:45 AM 46.4 °F 45.2 °F 44.6 °F 93% 29.66 in 1.0 mi Variable 3.5 mph 17.3 mph 0.27 in Rain Heavy Rain
8:53 AM 46.9 °F - 45.0 °F 93% 29.65 in 1.0 mi WNW 10.4 mph - 0.31 in Rain , Thunderstorm Heavy Rain
9:00 AM 46.4 °F 40.7 °F 44.6 °F 93% 29.68 in 2.0 mi WNW 12.7 mph - 0.04 in Rain , Thunderstorm Rain
9:03 AM 46.4 °F 40.1 °F 44.6 °F 93% 29.68 in 2.0 mi WNW 15.0 mph - 0.04 in Rain , Thunderstorm Rain
9:53 AM 44.1 °F 40.1 °F 42.1 °F 93% 29.63 in 2.0 mi North 6.9 mph - 0.24 in Rain , Thunderstorm Rain
10:53 AM 43.0 °F 38.2 °F 42.1 °F 97% 29.62 in 2.0 mi NE 8.1 mph - 0.37 in Rain Heavy Rain
11:00 AM 42.8 °F 37.5 °F 42.8 °F 100% 29.61 in 1.8 mi NNE 9.2 mph - 0.03 in Rain Rain
11:08 AM 42.8 °F 37.5 °F 42.8 °F 100% 29.60 in 2.5 mi NNE 9.2 mph - 0.05 in Rain Light Rain
11:17 AM 42.8 °F 37.5 °F 41.0 °F 93% 29.58 in 4.0 mi NE 9.2 mph - 0.05 in Rain Light Rain
11:35 AM 42.8 °F 36.6 °F 42.8 °F 100% 29.60 in 3.0 mi NW 11.5 mph - 0.06 in Rain Light Rain
11:41 AM 42.8 °F 36.6 °F 41.0 °F 93% 29.60 in 2.5 mi NW 11.5 mph - 0.08 in Rain Rain
11:53 AM 42.1 °F 37.1 °F 39.9 °F 92% 29.60 in 2.0 mi NNW 8.1 mph - 0.12 in Rain Rain
12:09 PM 42.8 °F 37.5 °F 39.2 °F 87% 29.56 in 3.0 mi NNE 9.2 mph - 0.04 in Rain Light Rain
12:20 PM 42.8 °F 37.5 °F 41.0 °F 93% 29.54 in 2.5 mi ENE 9.2 mph - 0.06 in Rain Light Rain
12:23 PM 42.8 °F 37.5 °F 41.0 °F 93% 29.53 in 3.0 mi ENE 9.2 mph - 0.06 in Rain Light Rain
12:53 PM 44.1 °F 41.5 °F 42.1 °F 93% 29.52 in 7.0 mi East 4.6 mph - 0.07 in Rain Light Rain
1:11 PM 42.8 °F 35.8 °F 41.0 °F 93% 29.54 in 6.0 mi NW 13.8 mph - 0.01 in Rain Light Rain
1:36 PM 42.8 °F 37.0 °F 39.2 °F 87% 29.48 in 2.5 mi ENE 10.4 mph - 0.04 in Rain Rain
1:49 PM 42.8 °F 37.0 °F 41.0 °F 93% 29.49 in 4.0 mi NE 10.4 mph - 0.05 in Rain Light Rain
1:53 PM 42.1 °F 37.7 °F 41.0 °F 96% 29.51 in 5.0 mi North 6.9 mph - 0.05 in Rain Light Rain
2:15 PM 39.2 °F 30.8 °F 39.2 °F 100% 29.52 in 5.0 mi NW 15.0 mph - 0.00 in Rain Light Rain
2:37 PM 39.2 °F 31.6 °F 37.4 °F 93% 29.47 in 1.8 mi NNW 12.7 mph 21.9 mph 0.00 in   Overcast
2:53 PM 37.9 °F 28.5 °F 37.0 °F 97% 29.53 in 0.8 mi WNW 17.3 mph 24.2 mph 0.00 in   Overcast
3:11 PM 37.4 °F 29.3 °F 37.4 °F 100% 29.54 in 0.2 mi NNW 12.7 mph - N/A Fog Fog
3:53 PM 37.0 °F 28.1 °F 36.0 °F 96% 29.52 in 0.2 mi North 15.0 mph - 0.00 in Fog Fog
4:06 PM 37.4 °F 27.2 °F 35.6 °F 93% 29.53 in 0.8 mi NNW 19.6 mph - N/A   Overcast
4:43 PM 35.6 °F 25.9 °F 35.6 °F 100% 29.52 in 1.0 mi North 16.1 mph - N/A   Overcast
4:53 PM 36.0 °F 27.5 °F 35.1 °F 97% 29.51 in 0.8 mi North 12.7 mph 21.9 mph 0.00 in   Overcast
5:53 PM 36.0 °F 26.3 °F 34.0 °F 93% 29.54 in 2.0 mi North 16.1 mph - 0.01 in   Overcast
6:53 PM 36.0 °F 27.1 °F 34.0 °F 93% 29.55 in 2.0 mi North 13.8 mph - 0.04 in Rain Rain
7:37 PM 35.6 °F 28.0 °F 33.8 °F 93% 29.57 in 4.0 mi NNW 10.4 mph - 0.03 in Rain Light Rain
7:53 PM 36.0 °F 28.0 °F 34.0 °F 93% 29.58 in 4.0 mi NNW 11.5 mph - 0.05 in Rain Light Rain
8:53 PM 35.1 °F 28.6 °F 34.0 °F 96% 29.54 in 5.0 mi North 8.1 mph - 0.04 in Rain Light Rain
9:53 PM 36.0 °F 30.3 °F 34.0 °F 93% 29.55 in 6.0 mi NNW 6.9 mph - 0.04 in Rain Light Rain
10:10 PM 35.6 °F 29.2 °F 33.8 °F 93% 29.52 in 5.0 mi North 8.1 mph - 0.02 in Rain Light Rain
10:27 PM 35.6 °F 27.5 °F 33.8 °F 93% 29.48 in 8.0 mi NNE 11.5 mph - 0.02 in   Overcast
10:50 PM 35.6 °F 27.1 °F 33.8 °F 93% 29.45 in 9.0 mi NE 12.7 mph 26.5 mph 0.02 in   Overcast
10:53 PM 35.1 °F 27.9 °F 34.0 °F 96% 29.48 in 10.0 mi North 9.2 mph 26.5 mph 0.02 in   Overcast
11:06 PM 35.6 °F 27.5 °F 33.8 °F 93% 29.47 in 10.0 mi NE 11.5 mph - N/A   Overcast
11:53 PM 36.0 °F 29.0 °F 34.0 °F 93% 29.53 in 10.0 mi NW 9.2 mph - N/A   Overcast